SCP
0 0 0 0 0 -0 -0 0 0 0 0 0 0 -0 0 0 0 0 0 -0 -0 0 0 0 -0 -0 -0 -0 -0 -0 -0 -0 -0 -0 -0 -0 -0 -0 -0 0 0 0 -0 -0 -0 -0 -0 -0 0
0 0 0 0 0 0 -0 0 0 0 0 -0 0 -0 -0 -0 0 0 0 -0 -0 0 0 0 -0 -0 -0 -0 -0 -0 -0 -0 -0 -0 -0 -0 -0 -0 -0 -0 0 0 0 0 -0 -0 -0 -0 -0
0 0 0 0 0 -0 -0 0 0 0 0 0 0 0 -0 -0 0 0 -0 -0 -0 -0 0 0 -0 -0 -0 -0 -0 -0 -0 -0 -0 0 -0 -0 -0 -0 -0 -0 -0 0 -0 -0 -0 -0 -0 -0 -0
0 0 0 0 0 0 0 0 0 0 0 0 0 0 0 0 0 0 -0 -0 -0 -0 -0 -0 -0 -0 -0 -0 -0 -0 0 -0 -0 -0 -0 -0 -0 -0 -0 -0 -0 -0 0 0 0 0 0 -0 -0
0 0 0 0 0 0 0 0 0 0 0 -0 0 0 0 0 -0 -0 -0 -0 -0 -0 -0 -0 -0 -0 -0 -0 -0 0 0 0 -0 -0 -0 -0 -0 -0 -0 -0 -0 -0 -0 0 0 0 0 -0 -0
0 0 0 0 0 0 0 0 0 0 0 0 0 0 0 0 -0 0 -0 -0 -0 -0 -0 -0 -0 -0 -0 -0 -0 0 0 0 -0 -0 -0 -0 -0 -0 0 0 -0 -0 -0 0 0 0 0 0 0
0 0 0 0 0 0 0 0 0 0 0 0 -0 0 -0 0 -0 0 -0 -0 -0 -0 -0 -0 -0 -0 -0 -0 -0 -0 0 0 0 0 0 -0 -0 0 0 0 0 0 0 0 0 0 0 0 0
0 0 0 0 0 0 0 0 0 0 0 0 0 0 -0 0 -0 0 -0 -0 -0 -0 -0 -0 -0 -0 -0 -0 -0 -0 -0 0 0 0 0 -0 0 0 0 0 0 0 0 0 0 0 0 0 0
0 0 0 0 0 0 0 0 0 0 0 0 0 0 0 -0 -0 0 0 0 0 -0 -0 -0 -0 -0 -0 -0 -0 -0 -0 -0 0 0 0 0 0 0 -0 -0 -0 0 0 0 0 0 0 0 0
0 0 0 0 0 0 0 0 0 0 0 0 0 0 0 0 0 0 0 -0 0 0 0 -0 -0 -0 -0 -0 0 -0 0 0 0 0 0 0 0 0 -0 -0 -0 -0 -0 -0 -0 0 0 0 0
0 0 0 0 0 0 0 0 0 0 0 0 0 0 0 0 0 0 0 0 0 0 0 0 0 -0 -0 0 0 0 0 0 0 0 0 0 0 0 0 0 0 0 0 0 0 0 0 0 0
0 0 0 0 0 0 0 0 0 0 0 0 0 0 0 0 0 0 0 0 0 0 0 0 0 0 0 0 0 0 0 0 0 0 0 0 0 0 0 0 0 0 0 0 0 0 0 0 0
0 0 0 0 0 0 0 0 0 0 0 0 0 0 0 0 0 0 0 0 0 0 0 0 0 0 0 0 0 0 0 0 0 0 0 0 0 0 0 0 0 0 0 0 0 0 0 0 0
0 0 0 0 0 0 0 0 0 0 0 0 0 0 0 0 0 0 0 0 0 0 0 0 0 0 0 0 0 0 0 0 0 0 0 0 0 0 0 0 0 0 0 0 0 0 0 0 0
0 0 0 0 0 0 0 0 0 0 0 0 0 0 0 0 0 0 0 0 0 0 0 0 0 0 0 0 0 0 0 0 0 0 0 0 0 0 0 0 0 0 0 0 0 0 0 0 0
0 0 0 0 0 0 0 0 0 0 0 0 0 0 0 0 0 0 0 0 0 0 0 0 0 0 0 0 0 0 0 0 0 0 0 0 0 0 0 0 0 0 0 0 0 0 0 0 0
0 0 0 0 0 0 0 0 0 0 0 0 0 0 0 0 0 0 0 0 0 0 0 0 0 0 0 0 0 0 0 0 0 0 0 0 0 0 0 0 0 0 0 0 0 0 0 0 0
0 0 0 0 0 0 0 0 0 0 0 0 0 0 0 0 0 0 0 0 0 0 0 0 0 0 0 0 0 0 0 0 0 0 0 0 0 0 0 0 0 0 0 0 0 0 0 0 0
0 0 0 0 0 0 0 0 0 0 0 0 0 0 0 0 0 0 0 0 0 0 0 0 0 0 0 0 0 0 0 0 0 0 0 0 0 0 0 0 0 0 0 0 0 0 0 0 0
0 0 0 0 0 0 0 0 0 0 0 0 0 0 0 0 0 0 0 0 0 0 0 0 0 0 0 0 0 0 0 0 0 0 0 0 0 0 0 0 0 0 0 0 0 0 0 0 0
0 0 0 0 0 0 0 -0 -0 0 0 0 0 0 0 0 0 0 0 0 0 0 0 0 0 0 0 0 0 0 0 0 0 0 0 0 0 0 0 0 0 0 0 0 0 0 0 0 0
0 0 0 0 0 0 0 -0 -0 -0 0 0 0 0 0 0 0 0 0 0 0 0 0 0 0 0 0 0 0 0 0 0 0 0 0 0 0 0 0 0 0 0 0 0 0 0 0 0 0
0 0 0 0 0 0 0 0 -0 -0 0 0 0 0 0 0 0 0 0 0 0 0 0 0 0 0 0 0 0 0 0 0 0 0 0 0 0 0 0 0 0 0 0 0 0 0 0 0 0
0 0 0 0 0 0 0 0 -0 -0 0 0 0 0 0 0 0 0 0 0 0 0 0 0 0 0 0 0 0 0 0 0 0 0 0 0 0 0 0 0 0 0 0 0 0 0 0 0 0
0 0 0 0 0 0 0 0 0 0 0 0 0 0 0 0 0 0 0 0 0 0 0 0 0 0 0 0 0 0 0 0 0 0 0 0 0 0 0 0 0 0 0 0 0 0 0 0 0
0 0 0 0 0 0 0 0 0 -0 -0 0 0 0 0 0 0 0 0 0 0 0 0 0 0 0 0 0 0 0 0 0 0 0 0 0 0 0 0 0 0 0 0 0 0 0 0 0 0
0 0 0 0 0 0 0 0 0 0 0 0 0 0 0 0 0 0 0 0 0 0 0 0 0 0 0 0 0 0 0 0 0 0 0 0 0 0 0 0 0 0 0 0 0 0 0 0 0
0 0 0 0 0 0 0 0 0 0 0 0 0 0 0 0 0 0 0 0 0 0 0 0 0 0 0 0 0 0 0 0 0 0 0 0 0 0 0 0 0 0 0 0 0 0 0 0 0
0 0 0 0 0 0 0 0 0 0 0 0 0 0 0 0 0 0 0 0 0 0 0 0 0 0 0 0 0 0 0 0 0 0 0 0 0 0 0 0 0 0 0 0 0 0 0 0 0
0 0 0 0 0 0 0 0 0 0 0 0 0 0 0 0 0 0 0 0 0 0 0 0 0 0 0 0 0 0 0 0 0 0 0 0 0 0 0 0 0 0 0 0 0 0 0 0 0
Wind_Speed_500mb
24 19 15 4 7 9 3 2 8 7 7 8 12 18 21 19 7 11 37 24 24 31 31 26 22 20 17 15 13 13 16 16 15 13 7 11 12 13 12 18 22 22 22 23 26 29 30 35 40
26 16 9 4 6 5 6 9 12 10 13 17 15 19 12 7 18 37 34 33 24 32 32 26 23 19 17 14 13 11 12 16 16 16 16 17 14 14 19 18 22 24 22 21 22 28 30 33 32
18 10 4 7 1 10 8 8 16 20 14 8 8 18 11 9 24 48 31 32 28 39 31 25 20 19 15 14 15 15 11 13 15 18 14 17 19 18 18 21 14 20 20 25 19 17 25 27 28
27 7 5 7 2 11 15 13 34 21 12 7 19 16 16 10 29 26 42 31 27 40 30 24 21 19 17 16 15 13 10 8 13 11 15 16 17 17 17 20 15 15 18 16 13 15 19 21 22
13 5 5 4 5 4 11 40 36 13 18 13 19 8 14 13 18 31 42 32 26 34 30 26 21 18 16 14 13 13 11 10 12 9 5 11 12 13 14 13 15 14 11 13 11 12 12 13 15
11 6 5 4 3 7 13 32 27 19 24 20 31 16 9 19 23 47 42 30 22 26 32 29 23 18 16 14 12 11 12 16 16 6 9 13 12 10 11 9 9 10 8 8 7 9 8 8 9
5 5 6 6 7 5 11 23 21 26 18 10 25 10 23 25 29 49 44 32 28 26 31 29 25 20 17 14 13 13 12 14 12 5 9 10 8 12 12 11 12 9 8 8 9 10 6 4 4
7 6 7 6 9 7 19 17 18 23 7 18 16 12 15 41 32 44 40 34 27 21 27 29 29 24 20 16 14 13 14 13 11 9 10 11 10 8 8 10 10 8 9 8 8 9 9 8 6
3 7 5 7 4 10 26 10 11 15 23 14 10 26 30 42 41 47 43 39 32 27 25 30 30 29 24 21 18 15 14 14 13 12 12 13 10 9 6 8 11 12 9 9 9 11 12 12 11
5 6 12 3 10 9 21 24 21 14 26 20 31 32 38 39 47 53 51 43 38 37 29 31 31 28 29 27 24 21 18 16 16 15 14 13 15 16 17 14 13 12 13 12 12 12 11 13 14
7 10 2 18 12 14 9 13 10 22 8 33 49 49 41 41 45 46 50 43 33 29 30 30 28 31 29 27 25 25 22 20 20 18 18 18 18 20 20 18 18 18 18 18 17 17 16 17 19
3 14 14 7 11 7 6 10 7 11 7 12 44 45 45 42 42 42 42 40 37 36 29 36 34 35 32 32 29 24 23 23 22 20 20 22 21 23 22 23 24 26 24 22 21 20 19 17 19
7 12 16 4 4 5 9 8 6 13 15 12 37 44 41 38 34 31 26 29 29 30 26 31 35 36 35 36 35 34 31 29 26 24 24 23 23 24 25 27 28 27 28 25 25 25 24 23 23
3 6 19 14 9 3 1 9 14 19 17 28 40 41 35 34 32 32 32 29 31 27 25 24 27 30 36 37 38 37 36 32 32 30 30 30 27 28 30 29 28 30 28 26 27 28 29 30 30
9 5 13 9 13 6 9 11 20 44 18 18 33 41 38 37 34 38 36 37 35 36 34 32 28 27 30 33 36 40 39 37 39 36 35 34 33 33 32 33 31 29 30 31 33 32 33 36 36
9 6 2 9 19 10 17 15 13 47 48 47 36 34 39 39 40 40 40 39 35 36 42 40 36 34 33 34 34 37 41 40 41 39 40 39 37 35 35 37 36 34 34 34 36 35 37 38 39
1 6 10 12 21 12 12 13 17 26 33 64 60 51 44 45 45 49 50 47 42 39 37 38 38 38 35 37 37 36 37 42 45 42 45 47 47 46 44 42 39 40 42 41 40 39 39 39 38
13 9 10 11 7 15 12 21 18 32 24 24 41 44 56 62 49 46 56 55 50 48 43 36 37 40 40 36 37 38 38 39 41 42 42 45 48 50 53 51 45 45 47 47 46 46 43 43 40
9 8 12 8 10 12 23 17 18 40 43 42 40 34 38 35 32 39 41 49 51 54 53 50 48 44 42 44 44 44 45 42 41 41 43 43 43 42 47 55 54 51 52 50 48 48 49 48 43
21 9 8 10 3 6 7 21 18 20 28 53 56 56 55 45 47 38 38 42 42 43 48 51 52 52 48 46 50 51 46 49 47 44 47 47 45 45 48 48 57 59 58 55 54 52 52 52 43
21 15 8 11 5 3 4 22 15 20 56 67 64 65 61 61 58 55 46 40 43 45 50 52 53 54 56 55 54 53 52 51 49 48 50 51 46 47 49 50 52 55 59 60 57 58 54 53 51
14 13 11 5 5 7 5 13 11 12 19 20 54 56 67 70 58 48 44 47 42 50 53 52 51 52 55 53 55 59 60 59 54 49 44 42 44 42 47 49 50 50 56 58 57 56 55 55 56
12 6 9 7 4 4 4 6 13 13 12 15 31 62 81 80 70 67 58 53 51 46 40 45 50 54 54 51 56 57 58 57 52 49 44 35 29 32 37 41 45 48 54 59 58 58 58 56 56
9 11 11 9 7 11 17 14 17 15 15 13 26 49 56 65 65 55 50 52 53 55 59 60 58 57 61 57 56 56 57 53 52 45 39 32 39 45 42 41 43 39 45 51 54 55 55 56 55
11 18 4 4 2 14 11 21 40 11 13 12 15 43 50 52 47 45 47 48 50 45 43 41 41 41 40 42 49 55 60 60 57 59 54 45 47 50 47 42 42 40 41 41 43 47 44 44 45
27 20 11 16 11 8 15 20 12 30 55 51 49 35 39 50 48 51 51 43 35 34 33 32 32 33 35 37 38 40 43 48 53 51 48 49 50 52 46 42 35 36 42 47 45 44 39 38 40
12 25 15 6 4 4 10 13 16 8 14 16 35 44 52 56 59 55 40 32 30 30 30 28 28 29 28 28 31 36 37 37 40 44 45 45 43 40 36 32 38 36 26 38 36 36 37 35 30
26 23 22 8 5 8 10 9 13 6 13 12 13 28 29 44 53 47 42 37 31 30 29 27 28 27 27 27 28 28 25 27 31 36 35 33 31 30 29 31 28 25 23 23 22 23 24 25 28
21 22 12 11 9 11 4 13 17 32 22 21 20 41 46 55 55 47 38 35 34 34 33 33 33 33 31 30 28 26 23 23 27 29 28 25 22 19 13 10 11 13 13 17 20 23 26 30 32
44 38 44 17 27 26 10 13 7 18 15 13 32 38 37 52 50 48 44 38 34 36 36 37 36 36 34 32 29 28 27 28 27 24 21 20 20 17 14 14 17 19 21 22 24 26 27 27 28
Wind_Direction_500mb
340 337 344 302 45 74 209 67 124 93 46 75 74 87 105 64 40 142 142 174 177 162 158 150 141 133 127 122 121 129 151 158 160 146 122 120 128 115 82 83 102 99 95 82 88 89 91 100 104
336 334 17 175 106 89 271 142 97 114 123 107 66 111 54 91 111 135 152 172 187 169 162 152 142 136 127 122 125 127 146 156 160 165 162 121 119 131 116 108 100 97 87 87 82 91 93 98 105
339 343 288 120 43 158 152 136 133 117 122 109 105 76 75 90 123 147 165 174 165 165 160 150 144 136 129 127 123 118 110 125 130 155 151 122 127 135 145 115 109 103 100 104 99 91 99 101 104
351 44 272 88 271 326 127 158 127 125 109 107 109 79 89 92 141 153 168 175 172 161 156 157 146 139 135 135 133 135 128 110 108 117 134 132 131 140 134 126 130 118 107 100 115 110 108 104 103
25 294 12 54 72 98 110 138 147 148 144 150 121 119 93 108 168 156 166 173 165 157 161 164 159 148 137 135 137 137 140 140 136 142 115 130 135 150 148 148 155 137 142 132 123 110 100 99 103
347 357 44 299 196 179 119 152 145 135 147 118 122 106 114 156 165 155 161 175 168 166 172 167 171 167 155 153 149 140 139 144 168 163 161 166 159 155 165 160 159 161 185 143 122 113 112 102 104
49 59 235 296 181 88 151 149 134 142 143 139 147 91 140 159 152 152 164 175 178 183 176 176 181 181 178 177 173 163 164 170 184 198 187 181 190 178 184 183 175 186 199 180 166 167 159 144 135
6 82 300 265 175 188 162 126 91 134 146 122 122 153 167 170 165 154 168 176 188 211 190 181 187 192 191 193 198 192 187 187 191 209 198 219 211 196 211 208 208 217 220 216 199 189 196 215 227
310 63 266 267 201 183 159 121 100 112 126 97 119 154 152 167 165 157 173 184 191 198 219 194 189 195 202 199 203 206 208 208 210 218 220 224 234 225 222 224 234 247 254 252 235 218 223 232 244
131 139 222 2 19 158 168 137 148 136 130 106 117 136 153 166 167 167 180 194 199 203 201 200 200 198 200 201 200 206 212 217 221 224 230 240 244 239 228 229 239 252 270 280 282 281 266 267 267
201 202 323 20 47 51 155 128 177 145 191 175 163 160 170 169 175 179 186 201 210 220 222 211 212 208 210 215 206 203 213 220 224 229 228 232 239 246 243 243 244 254 264 268 266 269 265 260 261
263 266 273 342 11 55 30 315 146 180 145 159 197 178 171 176 182 186 192 199 210 222 230 226 221 220 221 219 225 225 217 219 222 227 230 228 234 243 252 258 262 259 261 262 263 267 265 268 265
217 267 285 326 236 41 317 337 349 238 183 141 168 177 180 182 189 194 196 204 215 224 225 217 224 227 228 227 229 229 234 231 230 231 238 239 239 246 249 254 259 260 257 259 264 268 269 270 270
177 59 295 286 217 162 174 281 3 235 213 160 165 181 188 195 197 198 207 213 217 232 235 228 226 228 234 235 235 236 236 234 238 243 246 250 250 248 252 255 257 262 265 267 267 269 273 277 276
97 28 341 275 241 186 168 303 233 232 231 231 194 186 193 205 206 205 209 216 225 232 240 239 239 237 239 243 241 237 241 238 235 241 245 247 248 252 254 257 260 265 266 267 268 268 266 267 270
106 65 147 278 180 201 138 255 260 243 240 246 237 219 213 212 211 215 216 226 230 238 240 246 247 249 251 250 250 249 247 244 245 243 248 255 259 257 257 260 262 266 264 264 265 268 268 268 270
110 183 196 283 222 175 157 249 246 247 242 242 240 239 234 219 222 223 226 229 229 236 235 240 246 254 262 263 254 255 256 251 252 252 245 249 255 256 256 258 262 262 264 264 266 267 269 271 273
182 197 220 213 251 181 194 237 270 274 294 281 239 237 242 242 233 230 232 231 238 241 234 235 246 251 260 257 257 259 257 252 247 252 260 251 254 254 252 258 255 257 259 261 264 268 270 271 274
131 167 221 260 247 160 217 231 238 262 279 273 256 243 244 241 230 232 233 228 232 232 232 233 238 239 243 250 253 256 259 259 256 259 265 268 270 260 251 257 258 256 256 260 263 267 267 268 271
249 224 245 289 47 124 294 273 257 246 252 251 255 251 250 249 236 225 232 232 231 232 233 239 244 231 236 246 256 261 265 265 267 266 266 267 266 260 252 255 258 253 253 258 256 258 260 264 261
224 211 206 210 31 330 352 279 239 245 239 244 243 247 246 243 240 231 236 238 246 245 244 246 245 244 244 248 252 256 259 259 255 252 254 259 264 264 259 258 258 259 252 253 253 254 256 262 268
226 181 191 244 82 233 104 281 257 266 249 238 242 237 241 238 235 235 236 238 235 233 233 233 228 236 249 249 246 246 250 255 259 260 262 260 267 270 257 256 259 263 254 254 259 260 263 263 264
215 152 197 181 184 71 255 329 278 265 271 251 236 231 236 237 236 237 237 237 244 246 236 230 233 238 244 255 243 237 242 251 256 257 258 253 261 268 256 255 261 260 255 255 258 261 263 265 266
168 80 53 52 92 266 210 194 245 220 217 240 225 229 231 228 233 239 236 235 234 235 237 239 243 248 254 250 240 239 238 237 240 237 231 236 230 247 248 254 259 255 254 256 257 260 262 265 266
135 134 43 16 305 235 215 207 244 234 263 231 239 230 225 222 223 215 210 205 209 216 233 238 239 238 241 243 241 240 240 238 233 237 239 231 230 244 250 256 257 253 250 249 252 253 250 260 266
188 172 158 188 198 236 183 228 252 222 238 240 236 222 211 214 214 204 202 200 214 229 230 230 233 236 238 240 241 241 239 236 234 230 228 225 240 244 249 253 244 248 253 250 246 256 258 252 257
175 206 176 88 7 88 221 293 306 209 205 196 204 193 195 198 191 191 193 207 214 221 224 225 231 231 231 231 230 228 225 223 225 228 236 238 240 241 230 228 250 243 253 251 253 259 269 274 273
181 169 205 190 190 254 255 250 235 251 232 198 195 190 172 174 178 190 202 209 216 221 225 232 235 232 231 229 225 226 222 223 229 236 234 234 229 236 246 248 249 257 271 281 284 283 282 282 283
199 199 198 172 185 198 240 249 206 213 213 203 205 196 182 182 187 195 203 208 213 224 229 231 233 236 234 227 220 213 204 213 222 221 218 217 220 225 228 229 238 247 258 266 272 280 284 287 287
206 200 199 194 213 224 260 254 347 132 113 109 238 235 207 197 196 204 206 211 220 226 227 227 227 228 224 223 219 212 207 206 200 194 182 176 177 185 202 227 248 262 270 277 281 283 286 290 294
Wind_Speed_850mb
24 19 15 4 7 9 3 2 8 7 7 8 12 18 21 19 7 11 37 24 24 31 31 26 22 20 17 15 13 13 16 16 15 13 7 11 12 13 12 18 22 22 22 23 26 29 30 35 40
26 16 9 4 6 5 6 9 12 10 13 17 15 19 12 7 18 37 34 33 24 32 32 26 23 19 17 14 13 11 12 16 16 16 16 17 14 14 19 18 22 24 22 21 22 28 30 33 32
18 10 4 7 1 10 8 8 16 20 14 8 8 18 11 9 24 48 31 32 28 39 31 25 20 19 15 14 15 15 11 13 15 18 14 17 19 18 18 21 14 20 20 25 19 17 25 27 28
27 7 5 7 2 11 15 13 34 21 12 7 19 16 16 10 29 26 42 31 27 40 30 24 21 19 17 16 15 13 10 8 13 11 15 16 17 17 17 20 15 15 18 16 13 15 19 21 22
13 5 5 4 5 4 11 40 36 13 18 13 19 8 14 13 18 31 42 32 26 34 30 26 21 18 16 14 13 13 11 10 12 9 5 11 12 13 14 13 15 14 11 13 11 12 12 13 15
11 6 5 4 3 7 13 32 27 19 24 20 31 16 9 19 23 47 42 30 22 26 32 29 23 18 16 14 12 11 12 16 16 6 9 13 12 10 11 9 9 10 8 8 7 9 8 8 9
5 5 6 6 7 5 11 23 21 26 18 10 25 10 23 25 29 49 44 32 28 26 31 29 25 20 17 14 13 13 12 14 12 5 9 10 8 12 12 11 12 9 8 8 9 10 6 4 4
7 6 7 6 9 7 19 17 18 23 7 18 16 12 15 41 32 44 40 34 27 21 27 29 29 24 20 16 14 13 14 13 11 9 10 11 10 8 8 10 10 8 9 8 8 9 9 8 6
3 7 5 7 4 10 26 10 11 15 23 14 10 26 30 42 41 47 43 39 32 27 25 30 30 29 24 21 18 15 14 14 13 12 12 13 10 9 6 8 11 12 9 9 9 11 12 12 11
5 6 12 3 10 9 21 24 21 14 26 20 31 32 38 39 47 53 51 43 38 37 29 31 31 28 29 27 24 21 18 16 16 15 14 13 15 16 17 14 13 12 13 12 12 12 11 13 14
7 10 2 18 12 14 9 13 10 22 8 33 49 49 41 41 45 46 50 43 33 29 30 30 28 31 29 27 25 25 22 20 20 18 18 18 18 20 20 18 18 18 18 18 17 17 16 17 19
3 14 14 7 11 7 6 10 7 11 7 12 44 45 45 42 42 42 42 40 37 36 29 36 34 35 32 32 29 24 23 23 22 20 20 22 21 23 22 23 24 26 24 22 21 20 19 17 19
7 12 16 4 4 5 9 8 6 13 15 12 37 44 41 38 34 31 26 29 29 30 26 31 35 36 35 36 35 34 31 29 26 24 24 23 23 24 25 27 28 27 28 25 25 25 24 23 23
3 6 19 14 9 3 1 9 14 19 17 28 40 41 35 34 32 32 32 29 31 27 25 24 27 30 36 37 38 37 36 32 32 30 30 30 27 28 30 29 28 30 28 26 27 28 29 30 30
9 5 13 9 13 6 9 11 20 44 18 18 33 41 38 37 34 38 36 37 35 36 34 32 28 27 30 33 36 40 39 37 39 36 35 34 33 33 32 33 31 29 30 31 33 32 33 36 36
9 6 2 9 19 10 17 15 13 47 48 47 36 34 39 39 40 40 40 39 35 36 42 40 36 34 33 34 34 37 41 40 41 39 40 39 37 35 35 37 36 34 34 34 36 35 37 38 39
1 6 10 12 21 12 12 13 17 26 33 64 60 51 44 45 45 49 50 47 42 39 37 38 38 38 35 37 37 36 37 42 45 42 45 47 47 46 44 42 39 40 42 41 40 39 39 39 38
13 9 10 11 7 15 12 21 18 32 24 24 41 44 56 62 49 46 56 55 50 48 43 36 37 40 40 36 37 38 38 39 41 42 42 45 48 50 53 51 45 45 47 47 46 46 43 43 40
9 8 12 8 10 12 23 17 18 40 43 42 40 34 38 35 32 39 41 49 51 54 53 50 48 44 42 44 44 44 45 42 41 41 43 43 43 42 47 55 54 51 52 50 48 48 49 48 43
21 9 8 10 3 6 7 21 18 20 28 53 56 56 55 45 47 38 38 42 42 43 48 51 52 52 48 46 50 51 46 49 47 44 47 47 45 45 48 48 57 59 58 55 54 52 52 52 43
21 15 8 11 5 3 4 22 15 20 56 67 64 65 61 61 58 55 46 40 43 45 50 52 53 54 56 55 54 53 52 51 49 48 50 51 46 47 49 50 52 55 59 60 57 58 54 53 51
14 13 11 5 5 7 5 13 11 12 19 20 54 56 67 70 58 48 44 47 42 50 53 52 51 52 55 53 55 59 60 59 54 49 44 42 44 42 47 49 50 50 56 58 57 56 55 55 56
12 6 9 7 4 4 4 6 13 13 12 15 31 62 81 80 70 67 58 53 51 46 40 45 50 54 54 51 56 57 58 57 52 49 44 35 29 32 37 41 45 48 54 59 58 58 58 56 56
9 11 11 9 7 11 17 14 17 15 15 13 26 49 56 65 65 55 50 52 53 55 59 60 58 57 61 57 56 56 57 53 52 45 39 32 39 45 42 41 43 39 45 51 54 55 55 56 55
11 18 4 4 2 14 11 21 40 11 13 12 15 43 50 52 47 45 47 48 50 45 43 41 41 41 40 42 49 55 60 60 57 59 54 45 47 50 47 42 42 40 41 41 43 47 44 44 45
27 20 11 16 11 8 15 20 12 30 55 51 49 35 39 50 48 51 51 43 35 34 33 32 32 33 35 37 38 40 43 48 53 51 48 49 50 52 46 42 35 36 42 47 45 44 39 38 40
12 25 15 6 4 4 10 13 16 8 14 16 35 44 52 56 59 55 40 32 30 30 30 28 28 29 28 28 31 36 37 37 40 44 45 45 43 40 36 32 38 36 26 38 36 36 37 35 30
26 23 22 8 5 8 10 9 13 6 13 12 13 28 29 44 53 47 42 37 31 30 29 27 28 27 27 27 28 28 25 27 31 36 35 33 31 30 29 31 28 25 23 23 22 23 24 25 28
21 22 12 11 9 11 4 13 17 32 22 21 20 41 46 55 55 47 38 35 34 34 33 33 33 33 31 30 28 26 23 23 27 29 28 25 22 19 13 10 11 13 13 17 20 23 26 30 32
44 38 44 17 27 26 10 13 7 18 15 13 32 38 37 52 50 48 44 38 34 36 36 37 36 36 34 32 29 28 27 28 27 24 21 20 20 17 14 14 17 19 21 22 24 26 27 27 28
Wind_Direction_850mb
340 337 344 302 45 74 209 67 124 93 46 75 74 87 105 64 40 142 142 174 177 162 158 150 141 133 127 122 121 129 151 158 160 146 122 120 128 115 82 83 102 99 95 82 88 89 91 100 104
336 334 17 175 106 89 271 142 97 114 123 107 66 111 54 91 111 135 152 172 187 169 162 152 142 136 127 122 125 127 146 156 160 165 162 121 119 131 116 108 100 97 87 87 82 91 93 98 105
339 343 288 120 43 158 152 136 133 117 122 109 105 76 75 90 123 147 165 174 165 165 160 150 144 136 129 127 123 118 110 125 130 155 151 122 127 135 145 115 109 103 100 104 99 91 99 101 104
351 44 272 88 271 326 127 158 127 125 109 107 109 79 89 92 141 153 168 175 172 161 156 157 146 139 135 135 133 135 128 110 108 117 134 132 131 140 134 126 130 118 107 100 115 110 108 104 103
25 294 12 54 72 98 110 138 147 148 144 150 121 119 93 108 168 156 166 173 165 157 161 164 159 148 137 135 137 137 140 140 136 142 115 130 135 150 148 148 155 137 142 132 123 110 100 99 103
347 357 44 299 196 179 119 152 145 135 147 118 122 106 114 156 165 155 161 175 168 166 172 167 171 167 155 153 149 140 139 144 168 163 161 166 159 155 165 160 159 161 185 143 122 113 112 102 104
49 59 235 296 181 88 151 149 134 142 143 139 147 91 140 159 152 152 164 175 178 183 176 176 181 181 178 177 173 163 164 170 184 198 187 181 190 178 184 183 175 186 199 180 166 167 159 144 135
6 82 300 265 175 188 162 126 91 134 146 122 122 153 167 170 165 154 168 176 188 211 190 181 187 192 191 193 198 192 187 187 191 209 198 219 211 196 211 208 208 217 220 216 199 189 196 215 227
310 63 266 267 201 183 159 121 100 112 126 97 119 154 152 167 165 157 173 184 191 198 219 194 189 195 202 199 203 206 208 208 210 218 220 224 234 225 222 224 234 247 254 252 235 218 223 232 244
131 139 222 2 19 158 168 137 148 136 130 106 117 136 153 166 167 167 180 194 199 203 201 200 200 198 200 201 200 206 212 217 221 224 230 240 244 239 228 229 239 252 270 280 282 281 266 267 267
201 202 323 20 47 51 155 128 177 145 191 175 163 160 170 169 175 179 186 201 210 220 222 211 212 208 210 215 206 203 213 220 224 229 228 232 239 246 243 243 244 254 264 268 266 269 265 260 261
263 266 273 342 11 55 30 315 146 180 145 159 197 178 171 176 182 186 192 199 210 222 230 226 221 220 221 219 225 225 217 219 222 227 230 228 234 243 252 258 262 259 261 262 263 267 265 268 265
217 267 285 326 236 41 317 337 349 238 183 141 168 177 180 182 189 194 196 204 215 224 225 217 224 227 228 227 229 229 234 231 230 231 238 239 239 246 249 254 259 260 257 259 264 268 269 270 270
177 59 295 286 217 162 174 281 3 235 213 160 165 181 188 195 197 198 207 213 217 232 235 228 226 228 234 235 235 236 236 234 238 243 246 250 250 248 252 255 257 262 265 267 267 269 273 277 276
97 28 341 275 241 186 168 303 233 232 231 231 194 186 193 205 206 205 209 216 225 232 240 239 239 237 239 243 241 237 241 238 235 241 245 247 248 252 254 257 260 265 266 267 268 268 266 267 270
106 65 147 278 180 201 138 255 260 243 240 246 237 219 213 212 211 215 216 226 230 238 240 246 247 249 251 250 250 249 247 244 245 243 248 255 259 257 257 260 262 266 264 264 265 268 268 268 270
110 183 196 283 222 175 157 249 246 247 242 242 240 239 234 219 222 223 226 229 229 236 235 240 246 254 262 263 254 255 256 251 252 252 245 249 255 256 256 258 262 262 264 264 266 267 269 271 273
182 197 220 213 251 181 194 237 270 274 294 281 239 237 242 242 233 230 232 231 238 241 234 235 246 251 260 257 257 259 257 252 247 252 260 251 254 254 252 258 255 257 259 261 264 268 270 271 274
131 167 221 260 247 160 217 231 238 262 279 273 256 243 244 241 230 232 233 228 232 232 232 233 238 239 243 250 253 256 259 259 256 259 265 268 270 260 251 257 258 256 256 260 263 267 267 268 271
249 224 245 289 47 124 294 273 257 246 252 251 255 251 250 249 236 225 232 232 231 232 233 239 244 231 236 246 256 261 265 265 267 266 266 267 266 260 252 255 258 253 253 258 256 258 260 264 261
224 211 206 210 31 330 352 279 239 245 239 244 243 247 246 243 240 231 236 238 246 245 244 246 245 244 244 248 252 256 259 259 255 252 254 259 264 264 259 258 258 259 252 253 253 254 256 262 268
226 181 191 244 82 233 104 281 257 266 249 238 242 237 241 238 235 235 236 238 235 233 233 233 228 236 249 249 246 246 250 255 259 260 262 260 267 270 257 256 259 263 254 254 259 260 263 263 264
215 152 197 181 184 71 255 329 278 265 271 251 236 231 236 237 236 237 237 237 244 246 236 230 233 238 244 255 243 237 242 251 256 257 258 253 261 268 256 255 261 260 255 255 258 261 263 265 266
168 80 53 52 92 266 210 194 245 220 217 240 225 229 231 228 233 239 236 235 234 235 237 239 243 248 254 250 240 239 238 237 240 237 231 236 230 247 248 254 259 255 254 256 257 260 262 265 266
135 134 43 16 305 235 215 207 244 234 263 231 239 230 225 222 223 215 210 205 209 216 233 238 239 238 241 243 241 240 240 238 233 237 239 231 230 244 250 256 257 253 250 249 252 253 250 260 266
188 172 158 188 198 236 183 228 252 222 238 240 236 222 211 214 214 204 202 200 214 229 230 230 233 236 238 240 241 241 239 236 234 230 228 225 240 244 249 253 244 248 253 250 246 256 258 252 257
175 206 176 88 7 88 221 293 306 209 205 196 204 193 195 198 191 191 193 207 214 221 224 225 231 231 231 231 230 228 225 223 225 228 236 238 240 241 230 228 250 243 253 251 253 259 269 274 273
181 169 205 190 190 254 255 250 235 251 232 198 195 190 172 174 178 190 202 209 216 221 225 232 235 232 231 229 225 226 222 223 229 236 234 234 229 236 246 248 249 257 271 281 284 283 282 282 283
199 199 198 172 185 198 240 249 206 213 213 203 205 196 182 182 187 195 203 208 213 224 229 231 233 236 234 227 220 213 204 213 222 221 218 217 220 225 228 229 238 247 258 266 272 280 284 287 287
206 200 199 194 213 224 260 254 347 132 113 109 238 235 207 197 196 204 206 211 220 226 227 227 227 228 224 223 219 212 207 206 200 194 182 176 177 185 202 227 248 262 270 277 281 283 286 290 294